Regional Weather Roundup
Issued by NWS Huntsville, AL

Home | Current Version | Previous Version | Text Only | Print | Product List | Glossary On
Versions: 1 2 3 4 5 6 7 8 9 10 11 12 13 14 15 16 17 18 19 20 21 22 23 24 25 26 27
000
ASUS44 KHUN 250010
RWRHUN

WEATHER ROUNDUP FOR THE TENNESSEE VALLEY
NATIONAL WEATHER SERVICE HUNTSVILLE AL
700 PM CDT MON APR 24 2017

ALZ001>004-250100-
NORTHWEST ALABAMA

CITY           SKY/WX    TMP DP  RH WIND       PRES   REMARKS
COURTLAND HCN    N/A     63 N/A N/A N5          N/A
RUSSELLVILLE     N/A     61 N/A N/A MISG        N/A
SHOALS AIRPORT CLOUDY    62  52  69 N8        29.80F
6HR MIN TEMP:  62; 6HR MAX TEMP:  71;

SHOALS TVA RES   N/A     61 N/A N/A MISG        N/A
$$

ALZ005>007-016-250100-
NORTH CENTRAL ALABAMA

CITY           SKY/WX    TMP DP  RH WIND       PRES   REMARKS
CULLMAN AG STN   N/A     63 N/A N/A N6          N/A
DECATUR AP     CLOUDY    62  56  80 NW7       29.79R
6HR MIN TEMP:  62; 6HR MAX TEMP:  68;

HUNTSVILLE AP  MOCLDY    63  57  81 NW5       29.78S
6HR MIN TEMP:  63; 6HR MAX TEMP:  70;

MERIDIANVILLE  CLOUDY    61  54  77 CALM      29.79S
REDSTONE ARSN  MOCLDY    61  56  81 N5        29.77S
VINEMONT AP    CLOUDY    61  55  78 N7        29.80S
$$

ALZ008>010-250100-
NORTHEAST ALABAMA

CITY           SKY/WX    TMP DP  RH WIND       PRES   REMARKS
ALBERTVILLE    CLOUDY    61  59  94 N7        29.77S
FORT PAYNE     MOCLDY    61  52  72 N6        29.76S
SCOTTSBORO AP  CLEAR     61  55  82 NW3       29.77F
SCOTTSBORO HCN   N/A     63 N/A N/A MISG        N/A
VALLEY HEAD      N/A     61 N/A N/A MISG        N/A
$$

TNZ076-096-097-250100-
SOUTHEASTERN MIDDLE TENNESSEE

CITY           SKY/WX    TMP DP  RH WIND       PRES   REMARKS
TULLAHOMA      CLOUDY    61  55  82 CALM      29.79S
WINCHESTER     PTCLDY    59  55  88 CALM      29.78F
$$

...SURROUNDING SITES...

CITY           SKY/WX    TMP DP  RH WIND       PRES   REMARKS
ATLANTA        MOCLDY    63  58  83 NW7       29.73S
ANNISTON       MOCLDY    67  56  67 N5        29.76R
BIRMINGHAM     PTCLDY    69  54  58 N7        29.78S
CHATTANOOGA    PTCLDY    66  55  67 N7        29.75S
CORINTH        CLOUDY    63  54  72 SE3       29.78S
DALTON         CLOUDY    63  57  82 NW5       29.74S
GADSDEN        PTCLDY    64  55  72 NW7       29.77R
GOLDEN TRNGL   NOT AVBL
HALEYVILLE     FAIR      62  54  74 N6        29.80F
JACKSON TN     CLEAR     67  57  70 S6        29.76F
MEMPHIS        PTCLDY    72  53  51 CALM      29.75S
NASHVILLE      MOCLDY    66  54  65 E3        29.77F
OXFORD MS      FAIR      66  54  63 E3        29.78S
ROME           CLOUDY    65  56  72 NW5       29.73S
SAVANNAH       CLEAR     61  55  82 CALM      29.77F
TUPELO         PTCLDY    64  53  67 NE6       29.78F
TUSCALOOSA     CLEAR     68  53  58 NW7       29.77S
$$

...GULF COAST WEATHER...

CITY           SKY/WX    TMP DP  RH WIND       PRES   REMARKS
GULFPORT       CLEAR     76  52  43 N6        29.77R
PASCAGOULA     CLEAR     72  52  49 N3        29.78R
MOBILE         CLEAR     70  53  54 N8        29.80R
GULF SHORES    CLEAR     68  54  60 NW6       29.79R
PENSACOLA      PTCLDY    66  51  58 N7        29.78S
DESTIN         CLEAR     69  53  56 NW7       29.77F
PANAMA CITY    PTCLDY    67  51  57 CALM      29.77S
APPALACHICOLA  CLEAR     64  51  62 NW6       29.77F
$$





USA.gov is the U.S. government's official web portal to all federal, state and local government web resources and services.